www.pogodaiklimat.ru

Погода и климат >> Архив погоды >> Норвегия >> Мыкен


ПОГОДА на Мыкене

  • Прогноз погоды на Мыкене
  • Монитор погоды на Мыкене

АРХИВ ПОГОДЫ на Мыкене

Время (UTC), дата Ветер
(напр.,м/с)
 
Видим.   Явления Облачность Т
(С)
Тd
(С)
f
(%)
Тe
(С)
Тes
(С)
Комфортность P
(гПа)
Po
(гПа)
Тmin
(С)
Tmax
(С)
R
(мм)
R24
(мм)
S
(см)
04 9.01 СЗ 12-15
{17}
н/о н/о +2.9 -0.5 78 -5 -5 1016.7 1014.6
05 9.01 СЗ 11-14
{15}
н/о н/о +2.9 -0.7 77 -4 -4 1016.9 1014.8 0.1
06 9.01 СЗ 10 20 км 9/1 300 м
[Cb calv Ac cuf]
+2.7 -1.6 73 -4 -4 1017.1 1015.0 +1.5 +4.2
07 9.01 СЗ 11-14
{14}
н/о н/о +3.0 -1.7 71 -4 -4 1017.9 1015.8
08 9.01 СЗ 9-11
{14}
н/о н/о +2.6 -1.7 73 -4 -4 1018.5 1016.4
09 9.01 СЗ 8-11
{12}
20 км 9/1 300 м
[Cb calv Ac cuf]
+2.8 -2.1 70 -4 -4 1019.1 1017.0
10 9.01 СЗ 8-10
{13}
н/о н/о +2.3 -3.2 67 -4 -4 1019.5 1017.4
11 9.01 СЗ 5-6
{10}
н/о н/о +2.0 -2.5 72 -3 -3 1019.4 1017.3
12 9.01 З 5-8
{14}
20 км 8/1 300 м
[Cb calv Ac cuf Ci fib]
+2.4 -2.3 71 -3 -3 1019.5 1017.4
13 9.01 З 4-6
{9}
н/о н/о +1.6 -2.3 75 -3 -3 1019.1 1017.0
14 9.01 З 7-10
{11}
н/о н/о +0.9 -1.2 86 -6 -6 1019.2 1017.1
15 9.01 ЮЗ 1-3
{9}
15 км {ливн. осадки} 9/1 300 м
[Cb cap Ac cuf]
+1.1 -0.7 88 -1 -1 1018.4 1016.3
16 9.01 ЮЗ 6-9
{10}
н/о н/о +2.5 -2.4 70 -3 -3 1018.1 1016.0
17 9.01 ЮЗ 6-8
{9}
н/о н/о +2.3 -1.5 76 -4 -4 1017.1 1015.0
18 9.01 Ю 7-10
{11}
15 км {ливн. осадки} 9/1 300 м
[Cb cap Ac cuf]
+2.2 -1.6 76 -4 -4 1015.8 1013.7 +0.8 +3.2
19 9.01 Ю 10-14
{14}
н/о н/о +1.2 +0.2 93 -7 -7 1014.9 1012.8 0.1
20 9.01 Ю 11-15
{15}
н/о н/о +2.1 +0.3 88 -6 -6 1013.7 1011.6 0.1
21 9.01 Ю 13-16
{16}
10 км слаб. дождь 10/3 300 м
[Frnb As op]
+2.0 +0.7 91 -6 -6 1012.3 1010.2 0.4
22 9.01 Ю 12-17
{18}
н/о н/о +2.6 +1.3 91 -5 -5 1011.0 1008.9 0.5
23 9.01 Ю 14-21
{21}
н/о н/о +3.1 +1.8 91 -5 -5 1009.4 1007.3 0.4
00 10.01 Ю 16-22
{22}
10 км слаб. дождь 10/3 300 м
[Frnb As op]
+3.3 +2.1 92 -5 -5 1007.0 1004.9 0.7
01 10.01 Ю 18-22
{24}
н/о н/о +3.0 +2.0 93 -6 -6 1004.8 1002.7 1
02 10.01 Ю 19-24
{24}
н/о н/о +3.0 +2.0 93 -6 -6 1002.9 1000.8 0.7
03 10.01 Ю 21-26
{26}
н/о н/о +3.0 +2.3 95 -7 -7 1001.0 998.9 1
04 10.01 Ю 20-27
{27}
н/о н/о +3.3 +2.6 95 -6 -6 999.2 997.1 0.3
05 10.01 Ю 22-28
{29}
н/о н/о +3.7 +2.8 94 -6 -6 997.2 995.1
06 10.01 Ю 21 10 км слаб. дождь 10/3 300 м
[Frnb As op]
+3.9 +3.2 95 -5 -5 996.2 994.1 +0.7 +4.0 0.1
07 10.01 Ю 19-24
{28}
н/о н/о +4.9 +4.5 97 -4 -4 994.8 992.7 0.1
08 10.01 Ю 16-22
{24}
н/о н/о +5.7 +5.3 97 -2 -2 993.6 991.5 0.1
09 10.01 ЮЗ 13-20
{21}
10 км слаб. дождь 10/3 300 м
[Frnb As op]
+6.9 +6.5 97 0 0 993.0 991.0 0.1
10 10.01 ЮЗ 12-16
{22}
н/о н/о +6.8 +6.4 97 0 0 992.0 990.0 0.7
11 10.01 ЮЗ 14-20
{20}
н/о н/о +7.2 +6.8 97 +1 +1 990.5 988.5 0.3
12 10.01 ЮЗ 14-19
{28}
10 км слаб. дождь 10/3 300 м
[Frnb As op]
+7.3 +5.8 90 +1 +1 990.0 988.0 0.1
13 10.01 ЮЗ 17-22
{25}
н/о н/о +7.4 +3.8 78 +1 +1 989.1 987.1
14 10.01 ЮЗ 19-28
{28}
н/о н/о +7.1 +2.4 72 0 0 988.8 986.8
15 10.01 З 22-28
{31}
15 км {ливн. осадки, дождь} 9/1 300 м
[Cb calv Ac cuf]
+6.2 +0.1 65 -2 -2 987.5 985.5
16 10.01 З 21-27
{33}
н/о н/о +3.2 +0.8 84 -6 -6 987.7 985.6 0.2
17 10.01 З 21-27
{31}
н/о н/о +3.3 -1.1 73 -6 -6 986.4 984.3 0.5
18 10.01 З 22-27
{33}
15 км в посл. час ливневой дождь 6/1 300 м
[Cb calv Ac cuf]
+1.4 0.0 90 -9 -9 986.8 984.7 +1.0 +7.6
19 10.01 З 23-28
{28}
н/о н/о +2.7 -3.2 65 -7 -7 985.7 983.6 0.1
20 10.01 З 21-27
{29}
н/о н/о +1.6 -1.0 83 -8 -8 985.7 983.6
21 10.01 З 23-33
{35}
300 м слаб. ливневой снег 9/3 300 м
[Cb calv Ac cuf]
+1.8 0.0 88 -9 -9 984.9 982.8
22 10.01 З 23 н/о н/о +2.9 -0.7 77 -7 -7 983.5 981.4
23 10.01 З 24 н/о н/о +1.3 +0.1 92 -10 -10 982.9 980.8 0.2
00 11.01 З 26-31
{35}
300 м ливневой дождь со снегом 9/3 300 м
[Cb calv Ac cuf]
+2.7 +0.8 87 -8 -8 981.1 979.1 0.1
01 11.01 З 24-29
{33}
н/о н/о +3.1 +0.8 85 -7 -7 981.3 979.3 0.6
02 11.01 З 25-34
{37}
н/о н/о +3.8 0.0 76 -6 -6 980.6 978.6 0.2
03 11.01 З 27-31
{34}
н/о н/о +3.7 +0.9 82 -6 -6 980.4 978.4
04 11.01 З 26-35
{35}
н/о н/о +4.3 +2.3 87 -5 -5 979.6 977.6
05 11.01 З 22-28
{36}
н/о н/о +5.3 +1.8 78 -3 -3 981.1 979.1
06 11.01 СЗ 21 400 м ливневой дождь 10/10 300 м
[Cb cap]
+4.2 +2.6 89 -5 -5 982.4 980.4 +0.7 +5.5
07 11.01 СЗ 25-32
{32}
н/о н/о +3.9 +1.3 83 -6 -6 983.4 981.4
08 11.01 СЗ 21-28
{37}
н/о н/о +4.4 +1.6 82 -4 -4 985.3 983.3
09 11.01 СЗ 21-29
{35}
1000 м крупа {ливн. осадки} 10/10 300 м
[Cb cap]
+4.2 +0.5 77 -5 -5 987.0 984.9
10 11.01 СЗ 23-32
{36}
н/о н/о +4.9 +1.0 76 -4 -4 988.1 986.1
11 11.01 СЗ 23-33
{33}
н/о н/о +5.0 -0.8 66 -4 -4 989.1 987.1
12 11.01 СЗ 22-30
{37}
15 км {ливн. осадки} 9/1 300 м
[Cb cap Ac cuf]
+5.0 -0.4 68 -3 -3 990.3 988.3
13 11.01 СЗ 20-27
{31}
н/о н/о +5.0 -1.0 65 -3 -3 992.5 990.4
14 11.01 СЗ 18-23
{28}
н/о н/о +4.8 -0.6 68 -3 -3 993.9 991.8
15 11.01 СЗ 16-22
{26}
15 км 9/1 300 м
[Cb cap Ac cuf]
+4.6 -1.2 66 -3 -3 994.9 992.8
16 11.01 СЗ 16-20
{24}
н/о н/о +4.5 -1.1 67 -3 -3 996.2 994.1
17 11.01 СЗ 15-19
{21}
н/о н/о +4.4 -2.4 61 -3 -3 996.5 994.4
18 11.01 СЗ 15-20
{31}
15 км {ливн. осадки} 9/1 300 м
[Cb cap Ac cuf]
+4.0 -0.4 73 -4 -4 997.3 995.2 +2.3 +5.3
19 11.01 СЗ 14-16
{22}
н/о н/о +3.6 -1.9 67 -4 -4 997.7 995.6
20 11.01 СЗ 9-12
{20}
н/о н/о +2.6 -0.3 81 -4 -4 998.2 996.1
21 11.01 СЗ 12-17
{20}
200 м слаб. снег 10/3 300 м
[Frnb As op]
+1.4 +0.4 93 -7 -7 998.4 996.3
22 11.01 СЗ 13-17
{20}
н/о н/о +3.0 -1.9 70 -5 -5 998.1 996.0
23 11.01 СЗ 13-17
{23}
н/о н/о +2.0 -1.2 79 -6 -6 998.4 996.3
00 12.01 СЗ 12-15
{23}
15 км {ливн. осадки, снег} 9/1 300 м
[Cb calv Ac cuf]
+2.7 -2.0 71 -5 -5 998.5 996.4
01 12.01 СЗ 9-11
{18}
н/о н/о +1.8 -1.8 77 -5 -5 998.7 996.6
02 12.01 СЗ 13-16
{18}
н/о н/о +1.1 -1.6 82 -8 -8 998.3 996.2
03 12.01 СЗ 8-13
{19}
н/о н/о +1.7 -2.6 73 -5 -5 997.7 995.6
04 12.01 СЗ 10-14
{17}
н/о н/о +1.9 -3.2 69 -5 -5 997.3 995.2
05 12.01 СЗ 11-15
{15}
н/о н/о +1.8 -2.9 71 -6 -6 996.9 994.8
06 12.01 СЗ 11 15 км {ливн. осадки} 9/1 300 м
[Cb cap Ac cuf]
+1.2 -2.7 75 -7 -7 996.5 994.4 -0.3 +3.9
07 12.01 СЗ 12-15
{15}
н/о н/о -0.5 -1.6 92 -10 -10 996.5 994.4
08 12.01 С 11-13
{13}
н/о н/о +1.1 -4.7 65 -7 -7 995.7 993.6
09 12.01 С 8-12
{12}
15 км 8/1 300 м
[Cb cap Ac cuf]
+1.4 -5.5 60 -5 -5 995.8 993.7
10 12.01 СЗ 9-11
{12}
н/о н/о +1.0 -2.2 79 -6 -6 995.8 993.7
11 12.01 СЗ 5-11
{11}
н/о н/о +1.0 -2.7 76 -5 -5 995.9 993.8
12 12.01 С 7-9
{15}
20 км {ливн. осадки} 9/1 300 м
[Cb cap Ac cuf]
+1.2 -3.4 71 -5 -5 995.4 993.3
13 12.01 СЗ 6-8
{9}
н/о н/о +1.0 -4.4 67 -5 -5 995.3 993.2
14 12.01 СЗ 6-9
{9}
н/о н/о +1.1 -3.7 70 -5 -5 994.9 992.8
15 12.01 З 7-9
{10}
20 км 10/10 300 м
[St]
+0.8 -4.2 69 -6 -6 994.6 992.5
16 12.01 СЗ 10-12
{12}
н/о н/о -0.2 -1.9 88 -9 -9 994.0 991.9
17 12.01 З 2-3
{11}
н/о н/о +0.2 -2.7 81 -3 -3 993.5 991.4
18 12.01 СЗ 3-5
{12}
15 км {ливн. осадки} 9/1 300 м
[Cb cap Ac cuf]
+0.4 -3.7 74 -4 -4 992.7 990.6 -1.1 +1.8
19 12.01 СЗ 2-3
{6}
н/о н/о +0.6 -3.3 75 -3 -3 992.1 990.0
20 12.01 С 6-8
{8}
н/о н/о -0.2 -1.7 90 -7 -7 991.2 989.1
21 12.01 С 3-4
{8}
15 км в посл. час ливневой снег 9/1 300 м
[Cb calv Ac cuf]
-0.6 -1.5 94 -6 -6 990.5 988.4
22 12.01 СЗ 2-3
{5}
н/о н/о -0.4 -2.8 84 -4 -4 989.4 987.3
23 12.01 СЗ 4-5
{6}
н/о н/о -0.4 -1.8 90 -6 -6 988.2 986.1
00 13.01 СЗ 2-3
{8}
200 м снег {ливн. осадки} 10/3 300 м
[Frnb As op]
-0.7 -1.7 93 -5 -5 986.9 984.8
01 13.01 С 3-4
{4}
н/о н/о -0.8 -2.5 88 -6 -6 985.6 983.5
02 13.01 С 4-5
{5}
н/о н/о -0.9 -2.3 90 -7 -7 984.4 982.3
03 13.01 С 3-5
{5}
н/о н/о -0.4 -1.8 90 -5 -5 983.0 980.9
04 13.01 С 4-6
{7}
н/о н/о -1.0 -2.0 93 -7 -7 981.6 979.5
05 13.01 С 7-10
{10}
н/о н/о -1.2 -1.8 96 -9 -9 979.9 977.8
06 13.01 С 8 5000 м слаб. снег 10/3 300 м
[Frnb As op]
-1.2 -2.2 93 -9 -9 978.9 976.8 -1.5 +0.8
07 13.01 С 9-11
{11}
н/о н/о -1.1 -2.2 92 -9 -9 977.8 975.7
08 13.01 С 10-14
{14}
н/о н/о -1.2 -2.5 91 -10 -10 976.8 974.7
09 13.01 С 12-15
{16}
5000 м слаб. снег 10/3 300 м
[Frnb As op]
-1.5 -3.4 87 -11 -11 976.6 974.5
10 13.01 С 14-17
{17}
н/о н/о -2.3 -4.1 87 -12 -12 976.1 974.0
11 13.01 СЗ 13-16
{17}
н/о н/о -2.0 -5.7 76 -12 -12 976.2 974.1
12 13.01 СЗ 10-13
{17}
15 км {ливн. осадки, снег} 9/1 300 м
[Cb calv Ac cuf]
-0.8 -6.3 66 -9 -9 976.0 973.9
13 13.01 С 10-13
{14}
н/о н/о -1.2 -8.2 59 -9 -9 976.2 974.1
14 13.01 СЗ 8-11
{12}
н/о н/о -0.8 -7.4 61 -8 -8 976.4 974.3
15 13.01 СЗ 7-9
{13}
15 км 9/1 300 м
[Cb calv Ac cuf]
-0.4 -7.7 58 -7 -7 976.3 974.2
16 13.01 СЗ 4-6
{14}
н/о н/о -2.2 -4.1 87 -8 -8 976.6 974.5
17 13.01 СЗ 5-7
{14}
н/о н/о -1.3 -4.0 82 -8 -8 976.1 974.0
18 13.01 СЗ 13-16
{19}
5000 м слаб. крупа 10/10 300 м
[Cb cap]
-1.2 -3.7 83 -11 -11 975.5 973.4 -2.7 -0.2
19 13.01 -8
{15}
н/о н/о -0.9 -4.8 75 976.0 973.9
20 13.01 З 6-10
{10}
н/о н/о -2.3 -6.5 73 -9 -9 976.8 974.7
21 13.01 ЮВ 5-6
{6}
15 км {ливн. осадки} 6/1 300 м
[Cb cap Ac cuf]
-2.1 -4.2 86 -9 -9 975.6 973.5
22 13.01 ЮВ 9-11
{11}
н/о н/о -1.5 -3.9 84 -10 -10 975.0 972.9
23 13.01 Ю 5-8
{11}
н/о н/о -3.4 -4.3 93 -10 -10 975.2 973.1
00 14.01 ЮВ 7-10
{15}
100 м слаб. снег 10/3 300 м
[Frnb As op]
-3.0 -3.4 97 -11 -11 975.0 972.9
01 14.01 ЮВ 9-12
{12}
н/о н/о -2.7 -3.2 96 -12 -12 975.3 973.2
02 14.01 ЮВ 7-9
{12}
н/о н/о -2.5 -3.5 93 -10 -10 976.5 974.4
03 14.01 ЮВ 6-7
{9}
н/о н/о -1.9 -4.2 84 -9 -9 977.5 975.4
04 14.01 СВ 5-6
{7}
н/о н/о -1.9 -4.4 83 -8 -8 978.9 976.8
05 14.01 СВ 5-7
{7}
н/о н/о -2.1 -3.5 90 -9 -9 980.2 978.1
06 14.01 С 6-7
{12}
н/о н/о -1.5 -2.9 90 -9 -9 981.2 979.1 -3.8 -0.7
07 14.01 -7
{9}
н/о н/о -0.9 -4.5 77 982.2 980.1
08 14.01 С 4-6
{8}
н/о н/о -0.5 -4.7 73 -6 -6 983.3 981.2
09 14.01 С 8-11
{12}
1000 м слаб. снег 10/3 300 м
[Frnb As op]
-1.9 -3.6 88 -10 -10 984.5 982.4
10 14.01 С 6-9
{11}
н/о н/о -2.0 -3.4 90 -9 -9 985.9 983.8
11 14.01 -20
{28}
н/о н/о -0.9 -2.6 88 986.1 984.0
12 14.01 СЗ 19-24
{28}
15 км {ливн. осадки, снег} 9/1 300 м
[Cb calv Ac cuf]
+1.4 -5.9 58 -8 -8 985.9 983.8
13 14.01 С 16-21
{24}
н/о н/о +1.6 -6.0 57 -7 -7 986.5 984.4
14 14.01 С 16-21
{24}
н/о н/о +1.6 -6.0 57 -7 -7 986.5 984.4
15 14.01 СЗ 15-19
{23}
15 км 9/1 300 м
[Cb calv Ac cuf]
+1.4 -5.9 58 -7 -7 988.4 986.3
16 14.01 СЗ 12-15
{20}
н/о н/о +1.2 -7.5 52 -7 -7 989.6 987.5
17 14.01 С 11-14
{17}
н/о н/о +1.3 -7.4 52 -6 -6 990.2 988.1
18 14.01 С 9-13
{24}
15 км 6/1 300 м
[Cb calv Ac cuf]
+1.0 -8.2 50 -6 -6 990.8 988.7 -2.1 +1.6
19 14.01 С 8-10
{12}
н/о н/о +1.0 -8.5 49 -5 -5 991.1 989.0
20 14.01 -12
{12}
н/о н/о +0.7 -6.1 60 990.8 988.7
21 14.01 С 8-11
{12}
15 км 8/1 300 м
[Cb calv Ac cuf]
-0.1 -4.7 71 -7 -7 991.4 989.3
22 14.01 СВ 4-5
{8}
н/о н/о +1.0 -9.3 46 -3 -3 991.7 989.6
23 14.01 СЗ 5-8
{10}
н/о н/о -0.2 -5.5 67 -6 -6 991.8 989.7
00 15.01 З 3-4
{12}
15 км 9/1 300 м
[Cb calv Ac cuf]
-0.7 -3.8 80 -5 -5 991.9 989.8
01 15.01 ЮЗ 3-5
{6}
н/о н/о -1.6 -3.3 88 -7 -7 991.9 989.8
02 15.01 В 9-10
{10}
н/о н/о -2.0 -2.6 96 -11 -11 992.1 990.0
04 15.01 В 3-4
{7}
н/о н/о -1.7 -2.8 92 -7 -7 991.6 989.5
05 15.01 ЮВ 6-8
{8}
н/о н/о -0.8 -4.5 76 -7 -7 991.0 988.9
06 15.01 ЮВ 6 15 км {ливн. осадки} 6/1 300 м
[Cb calv Ac cuf]
-0.9 -5.1 73 -8 -8 990.8 988.7 -2.4 +1.2
07 15.01 ЮВ 5-7
{8}
н/о н/о -0.8 -5.0 73 -7 -7 990.5 988.4
08 15.01 ЮВ 7-8
{9}
н/о н/о -0.9 -5.1 73 -8 -8 990.3 988.2
09 15.01 Ю 6-8
{8}
15 км 9/1 300 м
[Cb calv Ac cuf]
-1.0 -5.6 71 -8 -8 990.1 988.0
10 15.01 Ю 10-12
{12}
н/о н/о -2.2 -2.8 96 -11 -11 989.3 987.2
11 15.01 Ю 7-9
{12}
н/о н/о -1.9 -2.5 96 -10 -10 989.7 987.6
12 15.01 СЗ 13-16
{18}
200 м слаб. снег 10/3 300 м
[Frnb As op]
-2.3 -2.7 97 -12 -12 989.4 987.3
13 15.01 СЗ 12-14
{16}
н/о н/о -2.0 -3.2 91 -12 -12 989.9 987.8
14 15.01 СЗ 10-13
{14}
н/о н/о -1.2 -3.9 82 -10 -10 990.4 988.3
15 15.01 СЗ 10-13
{13}
15 км {ливн. осадки, снег} 9/1 300 м
[Cb calv Ac cuf]
-0.9 -4.8 75 -9 -9 990.9 988.8
16 15.01 СЗ 9-11
{11}
н/о н/о -0.7 -3.7 80 -9 -9 991.4 989.3
17 15.01 З 7-9
{11}
н/о н/о -1.1 -6.2 68 -8 -8 992.0 989.9
18 15.01 З 7-11
{16}
15 км {ливн. осадки, снег} 8/1 300 м
[Cb calv Ac cuf]
-1.7 -3.6 87 -9 -9 992.3 990.2 -2.5 -0.6
19 15.01 З 7-9
{11}
н/о н/о -1.2 -5.1 75 -8 -8 992.4 990.3
20 15.01 З 6-8
{12}
н/о н/о -1.2 -6.6 67 -8 -8 993.0 990.9
21 15.01 З 4-6
{8}
20 км {ливн. осадки} 4/1 300 м
[Cb cap Ac cuf]
-1.0 -6.5 66 -6 -6 993.1 991.0
22 15.01 С 2-4
{7}
н/о н/о -1.3 -5.5 73 -5 -5 993.5 991.4
23 15.01 В 2-4
{6}
н/о н/о -1.1 -4.4 78 -5 -5 993.6 991.5
00 16.01 ЮВ 3-4
{12}
20 км {ливн. осадки} 6/1 300 м
[Cb cap Ac cuf]
-1.1 -5.7 71 -6 -6 993.4 991.3
01 16.01 ЮЗ 2-3
{3}
н/о н/о -1.0 -8.0 59 -4 -4 993.2 991.1
02 16.01 Ю 4-6
{6}
н/о н/о -0.7 -5.4 70 -6 -6 992.9 990.8

 

Местоположение метеостанции Мыкен (Норвегия): широта 66.77 долгота 12.48 высота над уровнем моря 17 м.

В архиве по умолчанию представлена погода на Мыкене за последнюю неделю. Архивные данные за месяц целиком и за предыдущие месяцы, начиная с января 2011 года, Вы можете получить, выбрав интересующий диапазон дат из раскрывающегося списка и нажав кнопку "Ввод!".


*Определитесь, кто Вы:
робот инопланетянин человек

Внимание! Время в таблицах - всемирное. Для получения местного времени необходимо прибавить поправку, которая равна 1 ч.

Смотрите также архив погоды в соседних городах и на ближайших метеорологических станциях:

Погода в Солвер III (Норвегия) (45 км)
Погода в Рейпе (Норвегия) (53 км)
Погода в Рост аэропорту (Норвегия) (85 км)
Погода в Скамдале (Норвегия) (86 км)
Погода в Сельджеля (Норвегия) (86 км)
Погода в Саннесшёэн аэропорту (Норвегия) (90 км)
Погода в Аэропорту Mo i Rana (Норвегия) (93 км)
Погода в Хеллигвере (Норвегия) (93 км)
Погода в Аэропорту Vaeroy Heliport (Норвегия) (98 км)
Погода в Бодо (Норвегия) (99 км)

Пояснения к столбцам:

Ветер - указаны скорость ветра в м/с - средняя за 10 мин, порывы в срок и между сроками (в фигурных скобках) и направление, откуда дует ветер: С - северный, СВ - северо-восточный, В - восточный, ЮВ - юго-восточный, Ю - южный, ЮЗ - юго-западный, З - западный, СЗ - северо-западный.
Видимость - горизонтальная дальность видимости в метрах или километрах. При видимости от 1 до 10 км при отсутствии осадков обычно наблюдается дымка, при ухудшении видимости до 1 км и менее - туман. В сухую погоду видимость может ухудшаться дымом, пылью или мглою.
Явления - указаны атмосферные явления, наблюдавшиеся в срок или в последний час перед сроком; фигурными скобками обозначены явления, наблюдавшиеся между сроками (за 1-3 часа до срока); квадратными скобками обозначены град или гололедные отложения с указанием их диаметра в мм.
Облачность - указаны через наклонную черту общая и нижняя облачность в баллах и высота нижней границы облаков в метрах; квадратными скобками обозначены формы облаков: Ci - перистые, Cs - перисто-слоистые, Cc - перисто-кучевые, Ac - высококучевые, As - высокослоистые, Sc - слоисто-кучевые, Ns - слоисто-дождевые, Cu - кучевые, Cb - кучево-дождевые. Подробнее классификацию облаков см. в Атласе облаков (PDF).
T - Температура воздуха - температура, измеренная на высоте 2 м над землей.
Td - Температура точки росы - температура, при понижении до которой содержащийся в воздухе водяной пар достигнет насыщения.
f - Относительная влажность воздуха - влажноcть воздуха, измеренная на высоте 2 м над землей.
Te - Эффективная температура - температура, которую ощущает одетый по сезону человек в тени. Характеристика душности погоды. При расчете учитывается влияние влажности воздуха и скорости ветра на теплоощущения человека.
Tes - Эффективная температура на солнце - температура, которую ощущает человек, с поправкой на солнечный нагрев. Характеристика знойности погоды. Зависит от высоты солнца над горизонтом, облачности и скорости ветра. Ночью, в пасмурную погоду, а также при ветре 12 м/с и более поправка равна нулю.
P - Атмосферное давление - приведенное к уровню моря атмосферное давление.
Po - Атмосферное давление - измеренное на уровне метеостанции атмосферное давление.
Tmin - Минимальная температура - минимум температуры воздуха на высоте 2 м над землей.
Tmax - Максимальная температура - максимум температуры воздуха на высоте 2 м над землей.
R - Количество осадков - Количество выпавших осадков за период времени, мм. При наведении курсора мыши на число - период времени, за который выпало указанное количество осадков.
R24 - Количество осадков - Количество выпавших осадков за 24 часа, мм.
S - Снежный покров - Высота снежного покрова, см. При наведении курсора мыши на число - состояние снежного покрова и степень покрытия местности в баллах.